Погода в Солопенках

Россия / Тульская область     54°32′45″N   36°59′49″E
темп.,
°C
ветер,
м/с
пор.,
м/с
влажн.,
%
обл.,
%
осадки,
мм/ч
давл.,
гПа
погр.,
м
21 апреля, ср
ср2100:00+1св5897100 0.1 1010417
03:00+1ссв3799100 1.1 1007256
06:00+1сз35100100 1.3 1005224
09:00+2з36100100 1.6 1005320
12:00+3з5894100 0.1 1007709
15:00+5зюз4780100 0.1 10091089
18:00+5юз2588100 0.1 1010339
21:00+4ююз3692100 0.1 1012159
22 апреля, чт
чт2200:00+4ююз4892100 0.0 1013228
03:00+4ююз5109485 0.0 1014346
06:00+4ююз599284 0.3 1015505
09:00+6ююз698792 0.3 1016505
12:00+10ююз687294 0.0 10161113
15:00+13ююз786442 0.3 10151318
18:00+11ю5107418 0.3 1015693
21:00+8ю51290100 0.4 1016342
23 апреля, пт
пт2300:00+7ю512927 0.0 1016276
03:00+7ю5139149 0.2 1016328
06:00+7ю6158680 0.1 1016380
09:00+11ю61375100 0.4 1016681
12:00+15ю9125072 0.2 10152303
15:00+15ю6115199 0.6 10142236
18:00+13ююв711629 0.6 1013957
21:00+9ююв4107829 1.3 1012250
24 апреля, сб
сб2400:00+9ююв5108581 0.3 1010463
03:00+8ююв61392100 1.7 10071100
06:00+3з5897100 0.8 1008379
09:00+3з4897100 2.3 1009438
12:00+4з4896100 1.8 1009597
15:00+8з695587 2.6 10081856
18:00+6зюз696694 0.9 10091017
21:00+4зюз4981100 1.1 1009362
25 апреля, вс
вс2500:00+3зюз4984100 0.3 1010383
03:000зюз410935 0.3 1010304
06:000зюз4109548 0.0 1010452
09:00+4зюз697688 0.0 10111043
12:00+6зюз6858100 0.3 10111638
15:00+8зюз6750100 1.1 10101757
18:00+6зюз576889 0.9 1010925
21:00+2ююз37786 1.1 1011129